Time,TemperatureF,DewpointF,PressureIn,WindDirection,WindDirectionDegrees,WindSpeedMPH,WindSpeedGustMPH,Humidity,HourlyPrecipIn,Conditions,Clouds,dailyrainin,SoftwareType,DateUTC
2013-08-02 00:03:00,63.2,59.9,29.91,SSW,209,2.0,2.0,89,0.00,,,0.00,Wunderground v.1.15,2013-08-02 05:03:00,
2013-08-02 00:08:00,63.3,59.7,29.91,South,182,2.0,3.0,88,0.00,,,0.00,Wunderground v.1.15,2013-08-02 05:08:00,
2013-08-02 00:14:00,63.2,59.9,29.90,South,171,3.0,3.0,89,0.00,,,0.00,Wunderground v.1.15,2013-08-02 05:14:00,
2013-08-02 00:19:00,63.1,59.8,29.91,SSW,206,3.0,4.0,89,0.00,,,0.00,Wunderground v.1.15,2013-08-02 05:19:00,
2013-08-02 00:25:00,63.2,59.6,29.91,SSW,204,3.0,4.0,88,0.00,,,0.00,Wunderground v.1.15,2013-08-02 05:25:00,
2013-08-02 00:30:00,63.3,59.7,29.90,South,171,3.0,4.0,88,0.00,,,0.00,Wunderground v.1.15,2013-08-02 05:30:00,
2013-08-02 00:35:00,63.3,59.7,29.90,South,173,3.0,4.0,88,0.00,,,0.00,Wunderground v.1.15,2013-08-02 05:35:00,
2013-08-02 00:40:00,63.2,59.6,29.90,SSW,204,3.0,3.0,88,0.00,,,0.00,Wunderground v.1.15,2013-08-02 05:40:00,
2013-08-02 00:46:00,63.4,59.5,29.90,SSW,199,3.0,4.0,87,0.00,,,0.00,Wunderground v.1.15,2013-08-02 05:46:00,
2013-08-02 00:51:00,63.6,59.7,29.90,SW,220,3.0,3.0,87,0.00,,,0.00,Wunderground v.1.15,2013-08-02 05:51:00,
2013-08-02 00:56:00,63.4,59.5,29.90,SSW,205,3.0,4.0,87,0.00,,,0.00,Wunderground v.1.15,2013-08-02 05:56:00,
2013-08-02 01:02:00,63.8,59.5,29.90,SSW,200,4.0,5.0,86,0.00,,,0.00,Wunderground v.1.15,2013-08-02 06:02:00,
2013-08-02 01:07:00,64.0,59.7,29.90,SSW,202,4.0,6.0,86,0.00,,,0.00,Wunderground v.1.15,2013-08-02 06:07:00,
2013-08-02 01:12:00,63.5,59.6,29.89,SW,223,4.0,4.0,87,0.00,,,0.00,Wunderground v.1.15,2013-08-02 06:12:00,
2013-08-02 01:17:00,63.2,59.3,29.89,SSW,205,3.0,4.0,87,0.00,,,0.00,Wunderground v.1.15,2013-08-02 06:17:00,
2013-08-02 01:22:00,63.2,59.3,29.89,South,191,3.0,4.0,87,0.00,,,0.00,Wunderground v.1.15,2013-08-02 06:22:00,
2013-08-02 01:27:00,63.2,59.3,29.88,South,171,3.0,4.0,87,0.00,,,0.00,Wunderground v.1.15,2013-08-02 06:27:00,
2013-08-02 01:32:00,63.0,59.1,29.88,South,172,3.0,6.0,87,0.00,,,0.00,Wunderground v.1.15,2013-08-02 06:32:00,
2013-08-02 01:37:00,63.0,59.1,29.88,SW,215,4.0,6.0,87,0.00,,,0.00,Wunderground v.1.15,2013-08-02 06:37:00,
2013-08-02 01:42:00,63.1,59.2,29.89,SW,220,4.0,5.0,87,0.00,,,0.00,Wunderground v.1.15,2013-08-02 06:42:00,
2013-08-02 01:47:00,63.1,58.8,29.88,SSW,208,4.0,7.0,86,0.00,,,0.00,Wunderground v.1.15,2013-08-02 06:47:00,
2013-08-02 01:52:00,63.1,58.8,29.88,SSW,201,4.0,5.0,86,0.00,,,0.00,Wunderground v.1.15,2013-08-02 06:52:00,
2013-08-02 01:57:00,63.1,58.8,29.88,SSW,211,4.0,5.0,86,0.00,,,0.00,Wunderground v.1.15,2013-08-02 06:57:00,
2013-08-02 02:03:00,62.9,58.6,29.88,SSE,154,4.0,5.0,86,0.00,,,0.00,Wunderground v.1.15,2013-08-02 07:03:00,
2013-08-02 02:08:00,62.6,58.7,29.88,South,175,4.0,5.0,87,0.00,,,0.00,Wunderground v.1.15,2013-08-02 07:08:00,
2013-08-02 02:13:00,62.5,58.6,29.88,South,171,4.0,5.0,87,0.00,,,0.00,Wunderground v.1.15,2013-08-02 07:13:00,
2013-08-02 02:18:00,62.4,58.5,29.88,South,191,4.0,5.0,87,0.00,,,0.00,Wunderground v.1.15,2013-08-02 07:18:00,
2013-08-02 02:23:00,62.5,58.6,29.88,SSW,204,4.0,7.0,87,0.00,,,0.00,Wunderground v.1.15,2013-08-02 07:23:00,
2013-08-02 02:28:00,62.7,58.8,29.88,SSW,205,4.0,9.0,87,0.00,,,0.00,Wunderground v.1.15,2013-08-02 07:28:00,
2013-08-02 02:33:00,62.8,58.9,29.88,SSW,213,5.0,6.0,87,0.00,,,0.00,Wunderground v.1.15,2013-08-02 07:33:00,
2013-08-02 02:39:00,62.8,58.5,29.87,South,191,5.0,6.0,86,0.00,,,0.00,Wunderground v.1.15,2013-08-02 07:39:00,
2013-08-02 02:44:00,62.7,58.8,29.87,SSW,209,5.0,7.0,87,0.00,,,0.00,Wunderground v.1.15,2013-08-02 07:44:00,
2013-08-02 02:49:00,62.5,58.6,29.87,SSW,208,5.0,7.0,87,0.00,,,0.00,Wunderground v.1.15,2013-08-02 07:49:00,
2013-08-02 02:54:00,62.4,58.5,29.87,SSW,212,5.0,6.0,87,0.00,,,0.00,Wunderground v.1.15,2013-08-02 07:54:00,
2013-08-02 02:59:00,62.4,58.5,29.87,SSW,209,5.0,7.0,87,0.00,,,0.00,Wunderground v.1.15,2013-08-02 07:59:00,
2013-08-02 03:05:00,62.2,58.6,29.87,SSW,211,5.0,7.0,88,0.00,,,0.00,Wunderground v.1.15,2013-08-02 08:05:00,
2013-08-02 03:10:00,62.1,58.5,29.87,SW,226,6.0,6.0,88,0.00,,,0.00,Wunderground v.1.15,2013-08-02 08:10:00,
2013-08-02 03:15:00,62.0,58.4,29.87,SSW,208,5.0,6.0,88,0.00,,,0.00,Wunderground v.1.15,2013-08-02 08:15:00,
2013-08-02 03:20:00,61.7,58.4,29.87,SW,220,4.0,4.0,89,0.00,,,0.00,Wunderground v.1.15,2013-08-02 08:20:00,
2013-08-02 03:25:00,61.6,58.3,29.87,SW,218,3.0,5.0,89,0.00,,,0.00,Wunderground v.1.15,2013-08-02 08:25:00,
2013-08-02 03:30:00,61.4,58.1,29.87,SW,218,3.0,3.0,89,0.00,,,0.00,Wunderground v.1.15,2013-08-02 08:30:00,
2013-08-02 03:35:00,61.2,57.9,29.87,SW,230,3.0,3.0,89,0.00,,,0.00,Wunderground v.1.15,2013-08-02 08:35:00,
2013-08-02 03:41:00,61.0,57.7,29.87,SSW,211,3.0,4.0,89,0.00,,,0.00,Wunderground v.1.15,2013-08-02 08:41:00,
2013-08-02 03:46:00,61.0,58.0,29.87,SW,216,3.0,4.0,90,0.00,,,0.00,Wunderground v.1.15,2013-08-02 08:46:00,
2013-08-02 03:51:00,61.2,58.2,29.87,SSW,207,3.0,5.0,90,0.00,,,0.00,Wunderground v.1.15,2013-08-02 08:51:00,
2013-08-02 03:56:00,61.7,58.4,29.87,SW,220,4.0,6.0,89,0.00,,,0.00,Wunderground v.1.15,2013-08-02 08:56:00,
2013-08-02 04:01:00,62.2,58.9,29.87,SSW,202,5.0,5.0,89,0.00,,,0.00,Wunderground v.1.15,2013-08-02 09:01:00,
2013-08-02 04:06:00,62.7,59.4,29.87,SW,216,5.0,6.0,89,0.00,,,0.00,Wunderground v.1.15,2013-08-02 09:06:00,
2013-08-02 04:11:00,63.2,59.9,29.87,SW,222,5.0,6.0,89,0.00,,,0.00,Wunderground v.1.15,2013-08-02 09:11:00,
2013-08-02 04:16:00,63.6,60.3,29.87,SSW,207,6.0,8.0,89,0.00,,,0.00,Wunderground v.1.15,2013-08-02 09:16:00,
2013-08-02 04:22:00,63.9,60.6,29.87,SW,217,7.0,7.0,89,0.00,,,0.00,Wunderground v.1.15,2013-08-02 09:22:00,
2013-08-02 04:27:00,64.1,60.8,29.87,SSW,202,7.0,9.0,89,0.00,,,0.00,Wunderground v.1.15,2013-08-02 09:27:00,
2013-08-02 04:32:00,64.2,60.9,29.86,South,169,7.0,9.0,89,0.00,,,0.00,Wunderground v.1.15,2013-08-02 09:32:00,
2013-08-02 04:37:00,64.4,61.1,29.87,South,187,7.0,9.0,89,0.00,,,0.00,Wunderground v.1.15,2013-08-02 09:37:00,
2013-08-02 04:42:00,64.5,61.2,29.87,SSW,209,7.0,7.0,89,0.00,,,0.00,Wunderground v.1.15,2013-08-02 09:42:00,
2013-08-02 04:47:00,64.5,61.2,29.87,SSW,207,6.0,7.0,89,0.00,,,0.00,Wunderground v.1.15,2013-08-02 09:47:00,
2013-08-02 04:52:00,64.5,61.2,29.87,SW,215,6.0,8.0,89,0.00,,,0.00,Wunderground v.1.15,2013-08-02 09:52:00,
2013-08-02 04:57:00,64.7,61.4,29.87,SSW,209,6.0,8.0,89,0.00,,,0.00,Wunderground v.1.15,2013-08-02 09:57:00,
2013-08-02 05:03:00,64.8,61.5,29.87,SSW,199,6.0,8.0,89,0.00,,,0.00,Wunderground v.1.15,2013-08-02 10:03:00,
2013-08-02 05:08:00,64.8,61.5,29.87,SSW,199,6.0,8.0,89,0.00,,,0.00,Wunderground v.1.15,2013-08-02 10:08:00,
2013-08-02 05:13:00,64.8,61.5,29.86,SW,222,6.0,7.0,89,0.00,,,0.00,Wunderground v.1.15,2013-08-02 10:13:00,
2013-08-02 05:18:00,64.8,61.5,29.86,SSW,208,6.0,8.0,89,0.00,,,0.00,Wunderground v.1.15,2013-08-02 10:18:00,
2013-08-02 05:23:00,64.8,61.5,29.86,SW,227,5.0,7.0,89,0.00,,,0.00,Wunderground v.1.15,2013-08-02 10:23:00,
2013-08-02 05:28:00,64.8,61.5,29.86,SSW,209,6.0,7.0,89,0.00,,,0.00,Wunderground v.1.15,2013-08-02 10:28:00,
2013-08-02 05:33:00,64.9,61.6,29.86,SSW,207,6.0,6.0,89,0.00,,,0.00,Wunderground v.1.15,2013-08-02 10:33:00,
2013-08-02 05:38:00,65.0,61.7,29.86,SSW,208,6.0,6.0,89,0.00,,,0.00,Wunderground v.1.15,2013-08-02 10:38:00,
2013-08-02 05:43:00,65.1,61.8,29.86,SW,230,6.0,6.0,89,0.00,,,0.00,Wunderground v.1.15,2013-08-02 10:43:00,
2013-08-02 05:48:00,65.3,62.0,29.86,SSW,204,6.0,9.0,89,0.00,,,0.00,Wunderground v.1.15,2013-08-02 10:48:00,
2013-08-02 05:53:00,65.4,62.1,29.86,SW,226,6.0,7.0,89,0.00,,,0.00,Wunderground v.1.15,2013-08-02 10:53:00,
2013-08-02 05:58:00,65.4,62.1,29.85,SW,220,6.0,7.0,89,0.00,,,0.00,Wunderground v.1.15,2013-08-02 10:58:00,
2013-08-02 06:04:00,65.4,62.1,29.85,SW,231,6.0,9.0,89,0.00,,,0.00,Wunderground v.1.15,2013-08-02 11:04:00,
2013-08-02 06:09:00,65.3,62.0,29.85,SW,236,6.0,9.0,89,0.00,,,0.00,Wunderground v.1.15,2013-08-02 11:09:00,
2013-08-02 06:14:00,65.6,62.3,29.85,WSW,239,6.0,6.0,89,0.00,,,0.00,Wunderground v.1.15,2013-08-02 11:14:00,
2013-08-02 06:19:00,65.8,62.1,29.85,SW,230,5.0,7.0,88,0.00,,,0.00,Wunderground v.1.15,2013-08-02 11:19:00,
2013-08-02 06:25:00,66.0,62.3,29.85,WSW,243,5.0,5.0,88,0.00,,,0.00,Wunderground v.1.15,2013-08-02 11:25:00,
2013-08-02 06:30:00,66.2,62.2,29.85,SW,226,5.0,6.0,87,0.00,,,0.00,Wunderground v.1.15,2013-08-02 11:30:00,
2013-08-02 06:35:00,66.5,62.2,29.85,SW,233,5.0,6.0,86,0.00,,,0.00,Wunderground v.1.15,2013-08-02 11:35:00,
2013-08-02 06:40:00,66.7,62.0,29.85,WSW,245,5.0,6.0,85,0.00,,,0.00,Wunderground v.1.15,2013-08-02 11:40:00,
2013-08-02 06:45:00,67.1,62.1,29.85,WSW,239,6.0,7.0,84,0.00,,,0.00,Wunderground v.1.15,2013-08-02 11:45:00,
2013-08-02 06:50:00,67.6,62.3,29.85,SW,231,6.0,6.0,83,0.00,,,0.00,Wunderground v.1.15,2013-08-02 11:50:00,
2013-08-02 06:55:00,67.8,62.4,29.85,WSW,239,6.0,8.0,83,0.00,,,0.00,Wunderground v.1.15,2013-08-02 11:55:00,
2013-08-02 07:00:00,68.0,62.3,29.86,WSW,249,6.0,6.0,82,0.00,,,0.00,Wunderground v.1.15,2013-08-02 12:00:00,
2013-08-02 07:06:00,68.3,62.6,29.86,SW,232,6.0,8.0,82,0.00,,,0.00,Wunderground v.1.15,2013-08-02 12:06:00,
2013-08-02 07:11:00,68.6,62.5,29.86,WSW,250,6.0,6.0,81,0.00,,,0.00,Wunderground v.1.15,2013-08-02 12:11:00,
2013-08-02 07:16:00,68.9,62.8,29.86,SW,227,6.0,10.0,81,0.00,,,0.00,Wunderground v.1.15,2013-08-02 12:16:00,
2013-08-02 07:21:00,69.1,63.0,29.85,SW,236,7.0,7.0,81,0.00,,,0.00,Wunderground v.1.15,2013-08-02 12:21:00,
2013-08-02 07:26:00,69.5,63.1,29.85,SW,232,7.0,8.0,80,0.00,,,0.00,Wunderground v.1.15,2013-08-02 12:26:00,
2013-08-02 07:31:00,69.7,63.3,29.85,WSW,251,8.0,8.0,80,0.00,,,0.00,Wunderground v.1.15,2013-08-02 12:31:00,
2013-08-02 07:36:00,69.8,63.3,29.85,WSW,256,7.0,10.0,80,0.00,,,0.00,Wunderground v.1.15,2013-08-02 12:36:00,
2013-08-02 07:41:00,69.9,63.4,29.85,SSW,207,8.0,10.0,80,0.00,,,0.00,Wunderground v.1.15,2013-08-02 12:41:00,
2013-08-02 07:46:00,70.1,63.3,29.85,SW,225,8.0,12.0,79,0.00,,,0.00,Wunderground v.1.15,2013-08-02 12:46:00,
2013-08-02 07:51:00,70.3,63.5,29.85,SW,236,8.0,10.0,79,0.00,,,0.00,Wunderground v.1.15,2013-08-02 12:51:00,
2013-08-02 07:56:00,70.5,63.7,29.85,WSW,248,9.0,11.0,79,0.00,,,0.00,Wunderground v.1.15,2013-08-02 12:56:00,
2013-08-02 08:02:00,70.7,63.9,29.85,SW,228,9.0,10.0,79,0.00,,,0.00,Wunderground v.1.15,2013-08-02 13:02:00,
2013-08-02 08:08:00,71.0,64.2,29.85,WSW,249,9.0,11.0,79,0.00,,,0.00,Wunderground v.1.15,2013-08-02 13:08:00,
2013-08-02 08:13:00,71.2,64.7,29.86,SW,233,9.0,11.0,80,0.00,,,0.00,Wunderground v.1.15,2013-08-02 13:13:00,
2013-08-02 08:18:00,71.4,64.9,29.86,SW,228,9.0,11.0,80,0.00,,,0.00,Wunderground v.1.15,2013-08-02 13:18:00,
2013-08-02 08:23:00,71.7,65.2,29.86,WSW,237,8.0,10.0,80,0.00,,,0.00,Wunderground v.1.15,2013-08-02 13:23:00,
2013-08-02 08:28:00,72.2,65.7,29.86,WSW,251,8.0,10.0,80,0.00,,,0.00,Wunderground v.1.15,2013-08-02 13:28:00,
2013-08-02 08:33:00,72.6,66.1,29.86,WSW,251,8.0,13.0,80,0.00,,,0.00,Wunderground v.1.15,2013-08-02 13:33:00,
2013-08-02 08:38:00,73.3,66.0,29.86,WSW,247,8.0,15.0,78,0.00,,,0.00,Wunderground v.1.15,2013-08-02 13:38:00,
2013-08-02 08:43:00,73.6,66.3,29.86,WSW,254,9.0,11.0,78,0.00,,,0.00,Wunderground v.1.15,2013-08-02 13:43:00,
2013-08-02 08:48:00,73.8,66.1,29.85,WSW,240,9.0,14.0,77,0.00,,,0.00,Wunderground v.1.15,2013-08-02 13:48:00,
2013-08-02 08:53:00,73.9,66.2,29.85,WSW,240,10.0,13.0,77,0.00,,,0.00,Wunderground v.1.15,2013-08-02 13:53:00,
2013-08-02 08:58:00,74.2,66.5,29.86,WSW,239,10.0,15.0,77,0.00,,,0.00,Wunderground v.1.15,2013-08-02 13:58:00,
2013-08-02 09:04:00,74.4,66.0,29.86,SW,235,12.0,18.0,75,0.00,,,0.00,Wunderground v.1.15,2013-08-02 14:04:00,
2013-08-02 09:09:00,74.4,66.3,29.85,WSW,256,13.0,18.0,76,0.00,,,0.00,Wunderground v.1.15,2013-08-02 14:09:00,
2013-08-02 09:14:00,74.5,66.4,29.86,SW,236,12.0,14.0,76,0.00,,,0.00,Wunderground v.1.15,2013-08-02 14:14:00,
2013-08-02 09:19:00,74.6,66.5,29.86,SSW,209,11.0,15.0,76,0.00,,,0.00,Wunderground v.1.15,2013-08-02 14:19:00,
2013-08-02 09:24:00,74.6,66.5,29.85,WSW,239,12.0,14.0,76,0.00,,,0.00,Wunderground v.1.15,2013-08-02 14:24:00,
2013-08-02 09:29:00,74.7,66.6,29.85,WSW,239,12.0,14.0,76,0.00,,,0.00,Wunderground v.1.15,2013-08-02 14:29:00,
2013-08-02 09:34:00,74.7,66.6,29.85,SW,228,11.0,12.0,76,0.00,,,0.00,Wunderground v.1.15,2013-08-02 14:34:00,
2013-08-02 09:40:00,74.8,67.1,29.85,WSW,240,10.0,13.0,77,0.00,,,0.00,Wunderground v.1.15,2013-08-02 14:40:00,
2013-08-02 09:45:00,75.0,67.7,29.85,SW,233,10.0,13.0,78,0.00,,,0.00,Wunderground v.1.15,2013-08-02 14:45:00,
2013-08-02 09:50:00,75.5,67.8,29.85,West,264,10.0,10.0,77,0.00,,,0.00,Wunderground v.1.15,2013-08-02 14:50:00,
2013-08-02 09:55:00,75.9,68.2,29.85,WSW,257,10.0,12.0,77,0.00,,,0.00,Wunderground v.1.15,2013-08-02 14:55:00,
2013-08-02 10:00:00,76.5,68.4,29.85,WSW,237,11.0,14.0,76,0.00,,,0.00,Wunderground v.1.15,2013-08-02 15:00:00,
2013-08-02 10:06:00,77.0,68.9,29.85,WSW,249,11.0,15.0,76,0.00,,,0.00,Wunderground v.1.15,2013-08-02 15:06:00,
2013-08-02 10:11:00,77.4,68.1,29.85,WSW,252,11.0,15.0,73,0.00,,,0.00,Wunderground v.1.15,2013-08-02 15:11:00,
2013-08-02 10:16:00,77.8,68.4,29.85,West,263,11.0,15.0,73,0.00,,,0.00,Wunderground v.1.15,2013-08-02 15:16:00,
2013-08-02 10:21:00,78.0,69.4,29.86,West,259,12.0,12.0,75,0.00,,,0.00,Wunderground v.1.15,2013-08-02 15:21:00,
2013-08-02 10:26:00,78.2,68.4,29.85,WSW,258,12.0,16.0,72,0.00,,,0.00,Wunderground v.1.15,2013-08-02 15:26:00,
2013-08-02 10:31:00,78.5,69.5,29.86,West,265,11.0,11.0,74,0.00,,,0.00,Wunderground v.1.15,2013-08-02 15:31:00,
2013-08-02 10:36:00,78.7,68.5,29.86,WSW,242,11.0,15.0,71,0.00,,,0.00,Wunderground v.1.15,2013-08-02 15:36:00,
2013-08-02 10:41:00,78.7,68.9,29.86,WSW,248,12.0,13.0,72,0.00,,,0.00,Wunderground v.1.15,2013-08-02 15:41:00,
2013-08-02 10:46:00,78.9,68.7,29.85,WSW,254,12.0,16.0,71,0.00,,,0.00,Wunderground v.1.15,2013-08-02 15:46:00,
2013-08-02 10:51:00,79.2,69.4,29.85,West,267,11.0,12.0,72,0.00,,,0.00,Wunderground v.1.15,2013-08-02 15:51:00,
2013-08-02 10:57:00,79.6,70.6,29.85,SW,233,10.0,13.0,74,0.00,,,0.00,Wunderground v.1.15,2013-08-02 15:57:00,
2013-08-02 11:03:00,79.7,69.5,29.85,WSW,247,10.0,12.0,71,0.00,,,0.00,Wunderground v.1.15,2013-08-02 16:03:00,
2013-08-02 11:08:00,79.8,70.0,29.85,West,263,11.0,14.0,72,0.00,,,0.00,Wunderground v.1.15,2013-08-02 16:08:00,
2013-08-02 11:13:00,79.8,69.1,29.85,West,265,12.0,19.0,70,0.00,,,0.00,Wunderground v.1.15,2013-08-02 16:13:00,
2013-08-02 11:19:00,80.5,71.4,29.85,WSW,239,10.0,19.0,74,0.00,,,0.00,Wunderground v.1.15,2013-08-02 16:19:00,
2013-08-02 11:24:00,80.9,71.4,29.85,West,264,9.0,10.0,73,0.00,,,0.00,Wunderground v.1.15,2013-08-02 16:24:00,
2013-08-02 11:29:00,80.3,70.0,29.85,WSW,258,11.0,12.0,71,0.00,,,0.00,Wunderground v.1.15,2013-08-02 16:29:00,
2013-08-02 11:34:00,80.1,70.3,29.85,SW,233,11.0,14.0,72,0.00,,,0.00,Wunderground v.1.15,2013-08-02 16:34:00,
2013-08-02 11:39:00,80.3,70.9,29.85,WSW,257,10.0,15.0,73,0.00,,,0.00,Wunderground v.1.15,2013-08-02 16:39:00,
2013-08-02 11:45:00,80.4,70.9,29.85,WSW,248,10.0,12.0,73,0.00,,,0.00,Wunderground v.1.15,2013-08-02 16:45:00,
2013-08-02 11:50:00,80.4,70.1,29.85,West,260,9.0,10.0,71,0.00,,,0.00,Wunderground v.1.15,2013-08-02 16:50:00,
2013-08-02 11:55:00,80.3,69.6,29.85,WSW,254,10.0,14.0,70,0.00,,,0.00,Wunderground v.1.15,2013-08-02 16:55:00,
2013-08-02 12:00:00,80.2,70.4,29.85,WSW,251,10.0,10.0,72,0.00,,,0.00,Wunderground v.1.15,2013-08-02 17:00:00,
2013-08-02 12:06:00,80.0,69.7,29.85,SW,236,9.0,12.0,71,0.00,,,0.00,Wunderground v.1.15,2013-08-02 17:06:00,
2013-08-02 12:11:00,79.7,70.3,29.85,WSW,247,9.0,11.0,73,0.00,,,0.00,Wunderground v.1.15,2013-08-02 17:11:00,
2013-08-02 12:16:00,79.6,70.2,29.85,WSW,244,9.0,11.0,73,0.00,,,0.00,Wunderground v.1.15,2013-08-02 17:16:00,
2013-08-02 12:21:00,79.7,70.7,29.85,WSW,249,9.0,9.0,74,0.00,,,0.00,Wunderground v.1.15,2013-08-02 17:21:00,
2013-08-02 12:26:00,79.8,70.4,29.85,WSW,250,8.0,9.0,73,0.00,,,0.00,Wunderground v.1.15,2013-08-02 17:26:00,
2013-08-02 12:31:00,80.0,71.4,29.85,SW,232,9.0,10.0,75,0.00,,,0.00,Wunderground v.1.15,2013-08-02 17:31:00,
2013-08-02 12:36:00,80.1,70.7,29.85,WSW,249,9.0,10.0,73,0.00,,,0.00,Wunderground v.1.15,2013-08-02 17:36:00,
2013-08-02 12:42:00,80.4,70.9,29.85,WSW,246,9.0,14.0,73,0.00,,,0.00,Wunderground v.1.15,2013-08-02 17:42:00,
2013-08-02 12:47:00,80.1,70.3,29.85,SSW,208,10.0,14.0,72,0.00,,,0.00,Wunderground v.1.15,2013-08-02 17:47:00,
2013-08-02 12:52:00,79.8,70.0,29.85,West,271,11.0,11.0,72,0.00,,,0.00,Wunderground v.1.15,2013-08-02 17:52:00,
2013-08-02 12:57:00,79.6,69.8,29.85,WSW,249,11.0,15.0,72,0.00,,,0.00,Wunderground v.1.15,2013-08-02 17:57:00,
2013-08-02 13:02:00,79.8,71.2,29.85,SW,225,10.0,10.0,75,0.00,,,0.00,Wunderground v.1.15,2013-08-02 18:02:00,
2013-08-02 13:08:00,79.8,71.2,29.85,WSW,239,10.0,15.0,75,0.00,,,0.00,Wunderground v.1.15,2013-08-02 18:08:00,
2013-08-02 13:13:00,79.9,70.9,29.85,SW,231,12.0,13.0,74,0.00,,,0.00,Wunderground v.1.15,2013-08-02 18:13:00,
2013-08-02 13:18:00,80.1,71.1,29.85,SW,232,12.0,13.0,74,0.00,,,0.00,Wunderground v.1.15,2013-08-02 18:18:00,
2013-08-02 13:23:00,80.6,71.5,29.85,SW,235,11.0,11.0,74,0.00,,,0.00,Wunderground v.1.15,2013-08-02 18:23:00,
2013-08-02 13:28:00,80.5,71.4,29.85,WSW,237,10.0,14.0,74,0.00,,,0.00,Wunderground v.1.15,2013-08-02 18:28:00,
2013-08-02 13:34:00,80.8,70.9,29.85,WSW,237,10.0,11.0,72,0.00,,,0.00,Wunderground v.1.15,2013-08-02 18:34:00,
2013-08-02 13:39:00,81.0,71.5,29.85,SSW,213,10.0,11.0,73,0.00,,,0.00,Wunderground v.1.15,2013-08-02 18:39:00,
2013-08-02 13:44:00,81.0,71.1,29.85,West,269,10.0,12.0,72,0.00,,,0.00,Wunderground v.1.15,2013-08-02 18:44:00,
2013-08-02 13:49:00,81.1,71.6,29.85,WSW,240,9.0,12.0,73,0.00,,,0.00,Wunderground v.1.15,2013-08-02 18:49:00,
2013-08-02 13:54:00,81.3,72.2,29.85,WSW,254,9.0,11.0,74,0.00,,,0.00,Wunderground v.1.15,2013-08-02 18:54:00,
2013-08-02 13:59:00,81.4,72.3,29.85,WSW,250,9.0,11.0,74,0.00,,,0.00,Wunderground v.1.15,2013-08-02 18:59:00,
2013-08-02 14:04:00,81.1,72.0,29.85,SW,236,9.0,14.0,74,0.00,,,0.00,Wunderground v.1.15,2013-08-02 19:04:00,
2013-08-02 14:09:00,81.0,71.9,29.85,WSW,254,10.0,16.0,74,0.00,,,0.00,Wunderground v.1.15,2013-08-02 19:09:00,
2013-08-02 14:14:00,80.6,71.5,29.85,SW,224,11.0,16.0,74,0.00,,,0.00,Wunderground v.1.15,2013-08-02 19:14:00,
2013-08-02 14:20:00,80.1,71.8,29.85,WSW,251,11.0,11.0,76,0.00,,,0.00,Wunderground v.1.15,2013-08-02 19:20:00,
2013-08-02 14:25:00,80.5,72.6,29.85,WSW,258,11.0,12.0,77,0.00,,,0.00,Wunderground v.1.15,2013-08-02 19:25:00,
2013-08-02 14:29:00,80.8,71.7,29.84,WSW,243,11.0,11.0,74,0.00,,,0.00,Wunderground v.1.15,2013-08-02 19:29:00,
2013-08-02 14:35:00,80.9,72.2,29.84,WSW,242,11.0,13.0,75,0.00,,,0.00,Wunderground v.1.15,2013-08-02 19:35:00,
2013-08-02 14:40:00,80.9,71.8,29.84,SW,220,10.0,10.0,74,0.00,,,0.00,Wunderground v.1.15,2013-08-02 19:40:00,
2013-08-02 14:45:00,81.0,72.3,29.84,SW,219,10.0,11.0,75,0.00,,,0.00,Wunderground v.1.15,2013-08-02 19:45:00,
2013-08-02 14:51:00,80.7,71.2,29.84,WSW,240,11.0,12.0,73,0.00,,,0.00,Wunderground v.1.15,2013-08-02 19:51:00,
2013-08-02 14:57:00,81.2,72.1,29.84,SW,232,10.0,15.0,74,0.00,,,0.00,Wunderground v.1.15,2013-08-02 19:57:00,
2013-08-02 15:03:00,81.4,71.1,29.84,WSW,240,10.0,16.0,71,0.00,,,0.00,Wunderground v.1.15,2013-08-02 20:03:00,
2013-08-02 15:08:00,81.8,71.9,29.83,SW,235,10.0,16.0,72,0.00,,,0.00,Wunderground v.1.15,2013-08-02 20:08:00,
2013-08-02 15:13:00,81.9,71.2,29.83,SW,222,10.0,12.0,70,0.00,,,0.00,Wunderground v.1.15,2013-08-02 20:13:00,
2013-08-02 15:18:00,82.2,72.3,29.83,WSW,239,10.0,12.0,72,0.00,,,0.00,Wunderground v.1.15,2013-08-02 20:18:00,
2013-08-02 15:24:00,82.4,72.5,29.83,WSW,239,11.0,13.0,72,0.00,,,0.00,Wunderground v.1.15,2013-08-02 20:24:00,
2013-08-02 15:29:00,82.2,71.0,29.83,WSW,254,11.0,13.0,69,0.00,,,0.00,Wunderground v.1.15,2013-08-02 20:29:00,
2013-08-02 15:35:00,81.7,71.0,29.83,WSW,241,11.0,15.0,70,0.00,,,0.00,Wunderground v.1.15,2013-08-02 20:35:00,
2013-08-02 15:40:00,81.3,70.6,29.83,WSW,248,11.0,11.0,70,0.00,,,0.00,Wunderground v.1.15,2013-08-02 20:40:00,
2013-08-02 15:45:00,81.7,72.2,29.83,WSW,242,10.0,11.0,73,0.00,,,0.00,Wunderground v.1.15,2013-08-02 20:45:00,
2013-08-02 15:51:00,81.7,71.8,29.83,SSW,211,9.0,9.0,72,0.00,,,0.00,Wunderground v.1.15,2013-08-02 20:51:00,
2013-08-02 15:56:00,81.8,69.3,29.83,SW,219,10.0,11.0,66,0.00,,,0.00,Wunderground v.1.15,2013-08-02 20:56:00,
2013-08-02 16:02:00,82.1,69.6,29.83,SW,233,11.0,11.0,66,0.00,,,0.00,Wunderground v.1.15,2013-08-02 21:02:00,
2013-08-02 16:08:00,82.0,70.4,29.83,WSW,248,10.0,11.0,68,0.00,,,0.00,Wunderground v.1.15,2013-08-02 21:08:00,
2013-08-02 16:12:00,82.2,70.1,29.83,West,260,9.0,12.0,67,0.00,,,0.00,Wunderground v.1.15,2013-08-02 21:12:00,
2013-08-02 16:18:00,82.2,68.3,29.83,WSW,250,9.0,12.0,63,0.00,,,0.00,Wunderground v.1.15,2013-08-02 21:18:00,
2013-08-02 16:24:00,82.5,67.2,29.83,WSW,254,10.0,15.0,60,0.00,,,0.00,Wunderground v.1.15,2013-08-02 21:24:00,
2013-08-02 16:30:00,82.7,67.9,29.82,WSW,239,11.0,11.0,61,0.00,,,0.00,Wunderground v.1.15,2013-08-02 21:30:00,
2013-08-02 16:35:00,82.9,68.1,29.82,WSW,243,10.0,11.0,61,0.00,,,0.00,Wunderground v.1.15,2013-08-02 21:35:00,
2013-08-02 16:41:00,82.2,68.3,29.82,SW,230,9.0,9.0,63,0.00,,,0.00,Wunderground v.1.15,2013-08-02 21:41:00,
2013-08-02 16:46:00,82.1,67.3,29.82,SW,235,9.0,13.0,61,0.00,,,0.00,Wunderground v.1.15,2013-08-02 21:46:00,
2013-08-02 16:51:00,82.1,68.3,29.82,SW,236,9.0,13.0,63,0.00,,,0.00,Wunderground v.1.15,2013-08-02 21:51:00,
2013-08-02 16:57:00,82.1,68.7,29.82,WSW,241,9.0,13.0,64,0.00,,,0.00,Wunderground v.1.15,2013-08-02 21:57:00,
2013-08-02 17:03:00,81.7,67.4,29.82,SW,225,9.0,15.0,62,0.00,,,0.00,Wunderground v.1.15,2013-08-02 22:03:00,
2013-08-02 17:08:00,81.9,67.1,29.82,SW,222,10.0,15.0,61,0.00,,,0.00,Wunderground v.1.15,2013-08-02 22:08:00,
2013-08-02 17:14:00,82.1,67.3,29.83,WSW,244,11.0,11.0,61,0.00,,,0.00,Wunderground v.1.15,2013-08-02 22:14:00,
2013-08-02 17:19:00,81.9,68.1,29.83,WSW,257,11.0,14.0,63,0.00,,,0.00,Wunderground v.1.15,2013-08-02 22:19:00,
2013-08-02 17:25:00,82.2,69.3,29.83,WSW,239,10.0,15.0,65,0.00,,,0.00,Wunderground v.1.15,2013-08-02 22:25:00,
2013-08-02 17:31:00,81.9,69.0,29.83,WSW,251,10.0,11.0,65,0.00,,,0.00,Wunderground v.1.15,2013-08-02 22:31:00,
2013-08-02 17:37:00,81.7,69.7,29.83,SW,228,9.0,12.0,67,0.00,,,0.00,Wunderground v.1.15,2013-08-02 22:37:00,
2013-08-02 17:42:00,81.5,69.5,29.83,SW,236,9.0,10.0,67,0.00,,,0.00,Wunderground v.1.15,2013-08-02 22:42:00,
2013-08-02 17:48:00,81.2,70.1,29.83,WSW,242,9.0,11.0,69,0.00,,,0.00,Wunderground v.1.15,2013-08-02 22:48:00,
2013-08-02 17:54:00,81.5,70.8,29.83,West,264,9.0,12.0,70,0.00,,,0.00,Wunderground v.1.15,2013-08-02 22:54:00,
2013-08-02 18:00:00,81.8,71.1,29.82,WSW,258,9.0,9.0,70,0.00,,,0.00,Wunderground v.1.15,2013-08-02 23:00:00,
2013-08-02 18:06:00,81.6,71.7,29.83,WSW,244,8.0,15.0,72,0.00,,,0.00,Wunderground v.1.15,2013-08-02 23:06:00,
2013-08-02 18:11:00,81.2,71.3,29.82,WSW,253,9.0,9.0,72,0.00,,,0.00,Wunderground v.1.15,2013-08-02 23:11:00,
2013-08-02 18:16:00,81.0,71.5,29.82,WSW,245,9.0,11.0,73,0.00,,,0.00,Wunderground v.1.15,2013-08-02 23:16:00,
2013-08-02 18:22:00,80.9,71.0,29.82,WSW,239,8.0,11.0,72,0.00,,,0.00,Wunderground v.1.15,2013-08-02 23:22:00,
2013-08-02 18:27:00,80.8,71.3,29.82,WSW,258,8.0,11.0,73,0.00,,,0.00,Wunderground v.1.15,2013-08-02 23:27:00,
2013-08-02 18:32:00,80.8,71.3,29.82,SW,231,8.0,11.0,73,0.00,,,0.00,Wunderground v.1.15,2013-08-02 23:32:00,
2013-08-02 18:37:00,80.4,71.3,29.82,WSW,244,8.0,11.0,74,0.00,,,0.00,Wunderground v.1.15,2013-08-02 23:37:00,
2013-08-02 18:43:00,79.9,70.9,29.82,SW,226,8.0,11.0,74,0.00,,,0.00,Wunderground v.1.15,2013-08-02 23:43:00,
2013-08-02 18:48:00,79.5,70.9,29.82,West,260,8.0,11.0,75,0.00,,,0.00,Wunderground v.1.15,2013-08-02 23:48:00,
2013-08-02 18:54:00,78.9,71.1,29.82,West,260,6.0,7.0,77,0.00,,,0.00,Wunderground v.1.15,2013-08-02 23:54:00,
2013-08-02 18:59:00,78.7,71.3,29.82,WSW,243,6.0,8.0,78,0.00,,,0.00,Wunderground v.1.15,2013-08-02 23:59:00,
2013-08-02 19:05:00,78.5,71.4,29.82,SW,223,8.0,12.0,79,0.00,,,0.00,Wunderground v.1.15,2013-08-03 00:05:00,
2013-08-02 19:10:00,77.7,71.4,29.82,SW,232,8.0,8.0,81,0.00,,,0.00,Wunderground v.1.15,2013-08-03 00:10:00,
2013-08-02 19:16:00,76.7,71.5,29.83,SW,230,8.0,10.0,84,0.00,,,0.01,Wunderground v.1.15,2013-08-03 00:16:00,
2013-08-02 19:21:00,75.6,71.1,29.83,SW,231,9.0,9.0,86,0.61,,,0.05,Wunderground v.1.15,2013-08-03 00:21:00,
2013-08-02 19:26:00,75.2,71.1,29.83,SW,223,6.0,9.0,87,0.31,,,0.09,Wunderground v.1.15,2013-08-03 00:26:00,
2013-08-02 19:32:00,75.3,71.2,29.83,SW,229,3.0,4.0,87,0.09,,,0.09,Wunderground v.1.15,2013-08-03 00:32:00,
2013-08-02 19:37:00,75.4,71.3,29.83,SSW,197,4.0,7.0,87,0.05,,,0.09,Wunderground v.1.15,2013-08-03 00:37:00,
2013-08-02 19:42:00,75.2,71.1,29.83,SW,233,6.0,8.0,87,0.00,,,0.09,Wunderground v.1.15,2013-08-03 00:42:00,
2013-08-02 19:47:00,74.9,70.8,29.83,SW,235,6.0,8.0,87,0.00,,,0.09,Wunderground v.1.15,2013-08-03 00:47:00,
2013-08-02 19:53:00,74.6,70.8,29.83,SW,233,7.0,9.0,88,0.00,,,0.09,Wunderground v.1.15,2013-08-03 00:53:00,
2013-08-02 19:58:00,74.4,70.6,29.83,SW,219,7.0,9.0,88,0.00,,,0.09,Wunderground v.1.15,2013-08-03 00:58:00,
2013-08-02 20:03:00,74.2,70.4,29.83,SW,235,6.0,8.0,88,0.00,,,0.09,Wunderground v.1.15,2013-08-03 01:03:00,
2013-08-02 20:09:00,74.0,70.2,29.83,SW,226,5.0,8.0,88,0.00,,,0.09,Wunderground v.1.15,2013-08-03 01:09:00,
2013-08-02 20:14:00,73.9,70.1,29.83,SW,232,5.0,7.0,88,0.00,,,0.09,Wunderground v.1.15,2013-08-03 01:14:00,
2013-08-02 20:19:00,73.7,70.3,29.83,WSW,237,5.0,7.0,89,0.00,,,0.09,Wunderground v.1.15,2013-08-03 01:19:00,
2013-08-02 20:25:00,73.6,70.2,29.83,WSW,244,5.0,7.0,89,0.00,,,0.09,Wunderground v.1.15,2013-08-03 01:25:00,
2013-08-02 20:30:00,73.5,70.1,29.83,WSW,256,6.0,8.0,89,0.00,,,0.09,Wunderground v.1.15,2013-08-03 01:30:00,
2013-08-02 20:35:00,73.5,70.1,29.83,SW,229,6.0,9.0,89,0.00,,,0.09,Wunderground v.1.15,2013-08-03 01:35:00,
2013-08-02 20:40:00,73.5,70.1,29.84,SW,226,7.0,7.0,89,0.00,,,0.09,Wunderground v.1.15,2013-08-03 01:40:00,
2013-08-02 20:46:00,73.5,70.1,29.83,SW,235,7.0,9.0,89,0.00,,,0.09,Wunderground v.1.15,2013-08-03 01:46:00,
2013-08-02 20:51:00,73.5,70.1,29.84,WSW,244,7.0,11.0,89,0.00,,,0.09,Wunderground v.1.15,2013-08-03 01:51:00,
2013-08-02 20:56:00,73.5,70.1,29.83,SW,224,8.0,11.0,89,0.00,,,0.09,Wunderground v.1.15,2013-08-03 01:56:00,
2013-08-02 21:01:00,73.4,70.0,29.83,SW,236,8.0,8.0,89,0.00,,,0.09,Wunderground v.1.15,2013-08-03 02:01:00,
2013-08-02 21:07:00,73.4,70.0,29.84,SW,230,8.0,10.0,89,0.00,,,0.09,Wunderground v.1.15,2013-08-03 02:07:00,
2013-08-02 21:12:00,73.2,69.8,29.84,WSW,251,8.0,8.0,89,0.00,,,0.09,Wunderground v.1.15,2013-08-03 02:12:00,
2013-08-02 21:17:00,73.1,69.7,29.84,SW,233,7.0,8.0,89,0.00,,,0.09,Wunderground v.1.15,2013-08-03 02:17:00,
2013-08-02 21:23:00,73.1,69.7,29.86,WSW,243,6.0,7.0,89,0.00,,,0.09,Wunderground v.1.15,2013-08-03 02:23:00,
2013-08-02 21:29:00,72.9,69.5,29.86,WSW,242,5.0,7.0,89,0.00,,,0.10,Wunderground v.1.15,2013-08-03 02:29:00,
2013-08-02 21:34:00,72.7,69.3,29.87,WSW,258,5.0,6.0,89,0.00,,,0.10,Wunderground v.1.15,2013-08-03 02:34:00,
2013-08-02 21:41:00,72.6,69.2,29.86,WSW,251,5.0,7.0,89,0.00,,,0.10,Wunderground v.1.15,2013-08-03 02:41:00,
2013-08-02 21:47:00,72.5,69.1,29.87,WSW,254,6.0,10.0,89,0.00,,,0.10,Wunderground v.1.15,2013-08-03 02:47:00,
2013-08-02 21:52:00,72.4,69.0,29.87,WSW,244,7.0,11.0,89,0.00,,,0.11,Wunderground v.1.15,2013-08-03 02:52:00,
2013-08-02 21:58:00,72.3,68.9,29.88,WSW,246,7.0,11.0,89,0.00,,,0.11,Wunderground v.1.15,2013-08-03 02:58:00,
2013-08-02 22:04:00,72.1,68.7,29.88,WNW,284,7.0,7.0,89,0.05,,,0.12,Wunderground v.1.15,2013-08-03 03:04:00,
2013-08-02 22:10:00,71.7,68.3,29.89,West,268,7.0,9.0,89,0.76,,,0.16,Wunderground v.1.15,2013-08-03 03:10:00,
2013-08-02 22:16:00,71.4,68.0,29.90,WSW,256,6.0,9.0,89,1.48,,,0.26,Wunderground v.1.15,2013-08-03 03:16:00,
2013-08-02 22:20:00,70.9,67.5,29.89,West,270,7.0,13.0,89,0.64,,,0.33,Wunderground v.1.15,2013-08-03 03:20:00,
2013-08-02 22:27:00,70.6,67.2,29.90,WNW,282,9.0,13.0,89,0.44,,,0.39,Wunderground v.1.15,2013-08-03 03:27:00,
2013-08-02 22:32:00,70.3,66.9,29.90,West,263,8.0,9.0,89,1.38,,,0.46,Wunderground v.1.15,2013-08-03 03:32:00,
2013-08-02 22:38:00,69.7,66.3,29.90,WNW,288,7.0,9.0,89,0.80,,,0.53,Wunderground v.1.15,2013-08-03 03:38:00,
2013-08-02 22:43:00,69.4,66.0,29.89,West,270,6.0,6.0,89,0.15,,,0.54,Wunderground v.1.15,2013-08-03 03:43:00,
2013-08-02 22:48:00,69.3,65.9,29.89,WSW,247,5.0,6.0,89,0.18,,,0.56,Wunderground v.1.15,2013-08-03 03:48:00,
2013-08-02 22:54:00,69.2,65.8,29.89,WSW,239,4.0,5.0,89,0.30,,,0.59,Wunderground v.1.15,2013-08-03 03:54:00,
2013-08-02 23:00:00,69.2,65.8,29.89,WSW,251,4.0,4.0,89,0.35,,,0.62,Wunderground v.1.15,2013-08-03 04:00:00,
2013-08-02 23:01:00,69.1,65.7,29.89,WSW,243,4.0,6.0,89,0.33,,,0.62,Wunderground v.1.15,2013-08-03 04:01:00,
2013-08-02 23:03:00,69.1,65.7,29.90,WSW,249,5.0,6.0,89,0.21,,,0.63,Wunderground v.1.15,2013-08-03 04:03:00,
2013-08-02 23:04:00,69.1,65.7,29.90,WSW,250,5.0,8.0,89,0.34,,,0.64,Wunderground v.1.15,2013-08-03 04:04:00,
2013-08-02 23:06:00,69.1,65.7,29.90,WSW,246,5.0,8.0,89,0.53,,,0.66,Wunderground v.1.15,2013-08-03 04:06:00,
2013-08-02 23:11:00,69.0,65.6,29.90,WSW,256,4.0,5.0,89,0.71,,,0.73,Wunderground v.1.15,2013-08-03 04:11:00,
2013-08-02 23:12:00,69.0,65.6,29.90,WSW,248,4.0,5.0,89,0.63,,,0.74,Wunderground v.1.15,2013-08-03 04:12:00,
2013-08-02 23:17:00,69.0,65.9,29.90,West,266,4.0,7.0,90,0.44,,,0.78,Wunderground v.1.15,2013-08-03 04:17:00,
2013-08-02 23:23:00,68.9,65.8,29.90,WSW,254,5.0,5.0,90,0.12,,,0.79,Wunderground v.1.15,2013-08-03 04:23:00,
2013-08-02 23:28:00,68.9,65.8,29.89,WSW,239,4.0,6.0,90,0.13,,,0.80,Wunderground v.1.15,2013-08-03 04:28:00,
2013-08-02 23:33:00,68.9,65.8,29.89,SW,235,5.0,6.0,90,0.09,,,0.80,Wunderground v.1.15,2013-08-03 04:33:00,
2013-08-02 23:39:00,68.9,65.8,29.90,WSW,246,5.0,6.0,90,0.05,,,0.80,Wunderground v.1.15,2013-08-03 04:39:00,
2013-08-02 23:44:00,68.9,65.8,29.90,WSW,239,5.0,6.0,90,0.00,,,0.80,Wunderground v.1.15,2013-08-03 04:44:00,
2013-08-02 23:49:00,68.9,65.8,29.90,WSW,247,5.0,7.0,90,0.00,,,0.80,Wunderground v.1.15,2013-08-03 04:49:00,
2013-08-02 23:54:00,69.0,65.9,29.89,WSW,245,5.0,7.0,90,0.00,,,0.80,Wunderground v.1.15,2013-08-03 04:54:00,
2013-08-02 23:59:00,69.0,65.9,29.89,WSW,240,4.0,7.0,90,0.00,,,0.80,Wunderground v.1.15,2013-08-03 04:59:00,